Terug naar catalogus

INSAT 2C

ActiefCommunicatieGEO
NORAD 23731·PAYLOAD·🇮🇳 India

Gelanceerd Dec 6, 1995 vanaf Guiana Space Centre

Loading…

TLE

VersSource: Space-Track

Epoch: Sep 14, 2026, 10:47 UTC

1 23731U 95067B   26257.44968940  .00000061  00000-0  00000-0 0  9996
2 23731  14.3576   7.5701 0001520  35.2542 344.0740  0.99779046112303

Volg INSAT 2C in realtime met AllMySat

Download on the App Store